TimeAKDT,TemperatureF,Dew PointF,Humidity,Sea Level PressureIn,VisibilityMPH,Wind Direction,Wind SpeedMPH,Gust SpeedMPH,PrecipitationIn,Events,Conditions,WindDirDegrees,DateUTC
12:55 AM,41.0,39.6,95,30.03,10.0,Calm,Calm,-,0.00,,Overcast,0,2012-10-06 08:55:00
1:55 AM,41.4,40.3,96,30.04,10.0,Calm,Calm,-,0.00,,Overcast,0,2012-10-06 09:55:00
2:55 AM,41.2,40.1,96,30.04,10.0,Calm,Calm,-,0.00,Rain,Light Rain,0,2012-10-06 10:55:00
3:54 AM,41.0,41.0,100,30.04,9.0,West,8.1,-,N/A,Rain,Light Rain,260,2012-10-06 11:54:00
3:55 AM,41.7,40.6,96,30.04,8.0,West,8.1,-,0.01,Rain,Light Rain,270,2012-10-06 11:55:00
4:00 AM,41.0,41.0,100,30.04,6.0,West,6.9,-,N/A,Rain,Light Rain,270,2012-10-06 12:00:00
4:17 AM,41.0,41.0,100,30.04,6.0,West,8.1,-,N/A,Rain,Light Rain,270,2012-10-06 12:17:00
4:19 AM,41.0,41.0,100,30.04,6.0,West,6.9,-,N/A,Rain,Light Rain,280,2012-10-06 12:19:00
4:34 AM,41.0,41.0,100,30.04,8.0,West,8.1,-,N/A,Rain,Light Rain,270,2012-10-06 12:34:00
4:44 AM,41.0,39.2,93,30.04,8.0,West,6.9,-,N/A,Rain,Light Rain,260,2012-10-06 12:44:00
4:55 AM,40.8,39.7,96,30.05,7.0,Calm,Calm,-,0.04,,Overcast,0,2012-10-06 12:55:00
4:59 AM,41.0,39.2,93,30.05,7.0,Calm,Calm,-,N/A,Rain,Light Rain,0,2012-10-06 12:59:00
5:21 AM,41.0,39.2,93,30.05,8.0,Calm,Calm,-,N/A,Rain,Light Rain,0,2012-10-06 13:21:00
5:55 AM,40.1,39.0,96,30.06,7.0,Calm,Calm,-,0.02,Rain,Light Rain,0,2012-10-06 13:55:00
6:28 AM,39.2,39.2,100,30.06,7.0,Calm,Calm,-,N/A,Rain,Light Rain,0,2012-10-06 14:28:00
6:29 AM,39.2,39.2,100,30.07,7.0,Calm,Calm,-,N/A,Rain,Light Rain,0,2012-10-06 14:29:00
6:32 AM,39.2,39.2,100,30.07,6.0,West,3.5,-,N/A,Rain,Light Rain,270,2012-10-06 14:32:00
6:34 AM,39.2,39.2,100,30.07,6.0,Calm,Calm,-,N/A,Rain,Light Rain,0,2012-10-06 14:34:00
6:35 AM,39.2,39.2,100,30.07,6.0,Calm,Calm,-,N/A,Rain,Light Rain,0,2012-10-06 14:35:00
6:36 AM,39.2,39.2,100,30.07,6.0,Calm,Calm,-,N/A,Rain,Light Rain,0,2012-10-06 14:36:00
6:55 AM,39.7,38.7,96,30.07,7.0,Calm,Calm,-,0.06,Rain,Light Rain,0,2012-10-06 14:55:00
7:18 AM,39.2,39.2,100,30.08,7.0,NW,4.6,-,N/A,Rain,Light Rain,310,2012-10-06 15:18:00
7:55 AM,39.7,38.7,96,30.09,7.0,NW,5.8,-,0.04,Rain,Light Rain,310,2012-10-06 15:55:00
8:31 AM,41.0,39.2,93,30.11,6.0,WNW,6.9,-,N/A,Rain,Light Rain,290,2012-10-06 16:31:00
8:33 AM,41.0,39.2,93,30.11,7.0,WNW,8.1,-,N/A,Rain,Light Rain,290,2012-10-06 16:33:00
8:55 AM,40.3,39.2,96,30.12,6.0,WNW,4.6,-,0.05,Rain,Light Rain,290,2012-10-06 16:55:00
9:07 AM,41.0,39.2,93,30.13,8.0,WNW,8.1,-,N/A,Rain,Light Rain,290,2012-10-06 17:07:00
9:11 AM,41.0,39.2,93,30.13,8.0,WNW,5.8,-,N/A,Rain,Light Rain,300,2012-10-06 17:11:00
9:55 AM,40.8,39.4,95,30.15,10.0,Calm,Calm,-,0.02,Rain,Light Rain,0,2012-10-06 17:55:00
10:55 AM,41.7,39.7,93,30.18,10.0,Calm,Calm,-,0.00,,Overcast,0,2012-10-06 18:55:00
11:55 AM,42.4,40.6,93,30.21,10.0,South,5.8,-,0.01,,Overcast,180,2012-10-06 19:55:00
12:31 PM,42.8,41.0,93,30.22,10.0,SW,5.8,-,N/A,Rain,Light Rain,220,2012-10-06 20:31:00
12:32 PM,42.8,41.0,93,30.22,10.0,SSW,5.8,-,N/A,Rain,Light Rain,210,2012-10-06 20:32:00
12:55 PM,43.3,40.3,89,30.23,10.0,SW,4.6,-,0.00,Rain,Light Rain,230,2012-10-06 20:55:00
1:30 PM,42.8,41.0,93,30.25,10.0,SSW,3.5,-,N/A,Rain,Light Rain,210,2012-10-06 21:30:00
1:51 PM,42.8,41.0,93,30.25,10.0,WSW,4.6,-,N/A,Rain,Light Rain,240,2012-10-06 21:51:00
1:55 PM,43.2,40.3,90,30.25,10.0,SW,4.6,-,0.00,Rain,Light Rain,220,2012-10-06 21:55:00
2:55 PM,43.3,39.2,85,30.26,10.0,Calm,Calm,-,0.01,Rain,Light Rain,0,2012-10-06 22:55:00
2:59 PM,42.8,39.2,87,30.26,10.0,Calm,Calm,-,N/A,Rain,Light Rain,0,2012-10-06 22:59:00
3:36 PM,42.8,39.2,87,30.26,10.0,SE,3.5,-,N/A,,Mostly Cloudy,140,2012-10-06 23:36:00
3:55 PM,43.7,40.3,88,30.25,10.0,SSE,6.9,-,0.00,,Mostly Cloudy,150,2012-10-06 23:55:00
4:55 PM,43.9,40.5,88,30.25,10.0,South,5.8,-,N/A,,Mostly Cloudy,170,2012-10-07 00:55:00
5:55 PM,43.2,40.3,90,30.26,10.0,South,6.9,-,N/A,,Overcast,170,2012-10-07 01:55:00
6:55 PM,41.4,39.0,91,30.25,10.0,South,4.6,-,N/A,,Overcast,170,2012-10-07 02:55:00
7:55 PM,40.8,38.7,92,30.25,10.0,SSE,9.2,-,N/A,,Mostly Cloudy,150,2012-10-07 03:55:00
8:55 PM,38.7,37.0,94,30.24,10.0,South,5.8,-,N/A,,Scattered Clouds,180,2012-10-07 04:55:00
9:55 PM,40.1,37.9,92,30.24,10.0,South,4.6,-,N/A,,Overcast,180,2012-10-07 05:55:00
10:55 PM,40.5,38.3,92,30.28,10.0,Calm,Calm,-,N/A,,Overcast,0,2012-10-07 06:55:00
11:55 PM,39.6,38.1,95,30.28,10.0,Calm,Calm,-,0.00,,Overcast,0,2012-10-07 07:55:00